Location: 相模原市立博物館
(35.5593°N, 139.3931°E)
Time: 06:34:18
(UTC+09:00)

X-37B - Pass Details

Date: 23 October 2021
Orbit: 330 x 341 km, 45.0° (Epoch: 20 November)

Event Time Altitude Azimuth Distance (km) Brightness Sun altitude
Rises 18:46:44 0° 307° (NW) 2,124 5.2 -22.9°
Reaches altitude 10° 18:48:56 10° 321° (NW) 1,283 3.7 -23.3°
Enters shadow 18:49:31 14° 328° (NNW) 1,088 3.2 -23.5°
